Regional Weather Roundup
Issued by NWS Raleigh/Durham, NC

Home | Current Version | Previous Version | Text Only | Print | Product List | Glossary On
Versions: 1 2 3 4 5 6 7 8 9 10 11 12 13 14 15 16 17 18 19 20 21 22 23 24 25 26 27 28
000
ASUS42 KRAH 291010
RWRRAH
NORTH CAROLINA WEATHER ROUNDUP
NATIONAL WEATHER SERVICE RALEIGH NC
600 AM EDT SUN MAY 29 2016

NOTE: "FAIR" INDICATES FEW OR NO CLOUDS BELOW 12,000 FEET WITH NO
SIGNIFICANT WEATHER AND/OR OBSTRUCTIONS TO VISIBILITY.

NCZ001-053-055-056-065-067-291100-
WESTERN NORTH CAROLINA

CITY           SKY/WX    TMP DP  RH WIND       PRES   REMARKS
ASHEVILLE      PTCLDY    63  56  78 CALM      30.16F
JEFFERSON      LGT RAIN  62  54  74 CALM      30.21S
MORGANTON      CLOUDY    64  63  96 CALM      30.18R
HICKORY        CLOUDY    65  64  97 NW3       30.12S
RUTHERFORDTON  CLOUDY    66  62  85 N6        30.12F
MOUNT AIRY     CLOUDY    66  62  85 CALM      30.17R
BOONE          DRIZZLE   58  58  98 CALM      30.23R
$$

NCZ021-022-025-041-071-084-088-291100-
CENTRAL NORTH CAROLINA

CITY           SKY/WX    TMP DP  RH WIND       PRES   REMARKS
CHARLOTTE      LGT RAIN  67  64  90 NW9       30.10R
GREENSBORO     CLOUDY    68  65  90 N3        30.12R
WINSTON-SALEM  CLOUDY    67  60  78 NE3       30.14R
RALEIGH-DURHAM MOCLDY    69  67  93 NE5       30.10S
FORT BRAGG     LGT RAIN  70  70 100 NE7       30.06R
FAYETTEVILLE   LGT RAIN  71  69  93 NE7       30.05S
BURLINGTON     CLOUDY    67  65  93 CALM      30.11S
LAURINBURG     HVY RAIN  71  70  96 NE12      30.03F FOG
$$

NCZ011-015-027-028-043-044-047-080-103-291100-
NORTHEASTERN NORTH CAROLINA

CITY           SKY/WX    TMP DP  RH WIND       PRES   REMARKS
ROCKY MT-WILSO CLOUDY    69  68  96 NE3       30.10S
GREENVILLE     CLOUDY    70  70 100 NE5       30.10F
WASHINGTON     CLOUDY    69  69  99 NE6       30.09R FOG
ELIZABETH CITY CLOUDY    71  70  96 E5        30.12R
MANTEO         NOT AVBL
CAPE HATTERAS  CLEAR     76  72  87 SE13      30.09R
$$

NCZ078-087-090-091-093-098-101-291100-
SOUTHEASTERN NORTH CAROLINA

CITY           SKY/WX    TMP DP  RH WIND       PRES   REMARKS
LUMBERTON      LGT RAIN  72  70  93 NE8       30.03R
GOLDSBORO      NOT AVBL
KINSTON        CLOUDY    72  71  96 NE6       30.08S
KENANSVILLE    CLOUDY    71  70  98 CALM      30.07S
NEW BERN       PTCLDY    72  70  93 NE6       30.08S
CHERRY POINT   MOCLDY    73  70  90 E5        30.08R
BEAUFORT       CLOUDY    73  71  93 E6        30.06R
JACKSONVILLE   LGT RAIN  74  71  91 NE8       30.05R
WILMINGTON     CLOUDY    73  71  93 NE5       30.03R
$$





USA.gov is the U.S. government's official web portal to all federal, state and local government web resources and services.